Location: El Toro
(33.6470°N, 117.6837°W)
Time: 00:06:28
(UTC+00:00)

Daily predictions for brighter satellites

Satellite Brightness Start Highest point End
(mag) Time Altitude Azimuth Time Altitude Azimuth Time Altitude Azimuth
SKYMED 2 3.8 01:31:44 10° NNE 01:35:56 48° E 01:40:07 10° S
Cosmos 1934 Rocket 4.2 01:29:53 10° N 01:36:06 54° E 01:42:19 10° SSE
Meteor 1-16 Rocket 4.3 01:32:02 10° S 01:37:37 86° W 01:43:04 10° N
ASTEX 1 3.5 01:33:59 10° NNE 01:38:52 54° E 01:43:44 10° S
Cosmos 1726 Rocket 4.4 01:34:39 10° SSW 01:38:58 57° W 01:43:17 10° N
Cosmos 2278 Rocket 2.2 01:36:37 10° SSW 01:42:17 79° ESE 01:47:57 10° NNE
Lacrosse 5 rocket 2.0 01:38:34 10° NW 01:42:18 55° SW 01:46:16 10° SSE
YAOGAN 6 3.5 01:40:52 10° SE 01:44:00 27° ENE 01:47:07 10° NNE
CZ-3 Stage 3 2.1 01:36:24 10° WSW 01:45:07 56° S 01:47:48 10° E
CZ-4C R/B 4.1 01:37:51 10° NW 01:45:16 51° WSW 01:53:18 10° S
Cosmos 1535 Rocket 4.4 01:41:52 10° N 01:48:01 69° E 01:54:05 10° SSE
Cosmos 1328 3.8 01:46:48 10° N 01:50:43 58° E 01:54:34 10° SSE
Meteor 1-11 4.5 01:46:20 10° N 01:51:57 49° E 01:57:32 10° SSE
Lacrosse 5 3.7 01:49:56 10° N 01:52:44 15° NNE 01:55:11 11° ENE
Envisat 3.0 01:49:08 10° SSE 01:54:09 67° ENE 01:59:12 10° N
NOSS 3-2 (C) 3.8 01:49:43 10° S 01:54:48 37° ESE 02:00:18 10° NE
Cosmos 1271 Rocket 4.2 01:51:18 10° NNW 01:55:07 44° W 01:58:55 10° SSW
CSL-04 Rocket 4.1 01:51:30 10° SE 01:56:38 40° ENE 02:01:44 10° N
BREEZE M DEB (TANK) 4.1 01:54:44 10° N 01:56:59 18° NE 01:59:33 14° ENE
Cosmos 1300 3.7 01:56:57 10° SE 02:00:03 24° E 02:03:11 10° NE
Cosmos 2058 Rocket 4.2 01:59:02 10° SSW 02:03:12 46° W 02:07:24 10° N
USA 116 3.3 02:02:14 10° NNE 02:05:32 64° E 02:09:12 10° S
Unknown 2.3 02:06:31 10° NW 02:09:11 85° NE 02:10:54 19° SE
EO 1 Delta rocket 3.8 02:11:14 10° SSE 02:15:46 58° ENE 02:20:28 10° N
Cosmos 1461 3.7 02:15:14 10° N 02:18:56 31° ENE 02:20:08 27° E
CZ-4 R/B 1.5 02:17:19 10° SSE 02:21:29 86° W 02:25:42 10° NNW
Okean-O 4.5 02:17:37 10° SSW 02:21:38 34° W 02:25:40 10° NNW
Cosmos 1833 Rocket 2.8 02:17:29 10° N 02:22:57 50° ENE 02:28:22 10° SE
ATLAS 3B R/B 2.9 02:17:33 10° S 02:23:56 44° ESE 02:29:05 15° NE
COSMO-SKYMED 1 3.9 02:19:51 10° N 02:23:57 42° WNW 02:28:02 10° SW
DMSP B5D1-3 4.4 02:20:42 10° NNE 02:25:49 71° ESE 02:30:57 10° S
Cosmos 1703 4.3 02:24:14 10° NNW 02:28:00 47° W 02:31:44 10° SSW
Cosmos 1153 Rocket 4.4 02:24:51 10° N 02:30:55 61° E 02:37:00 10° SSE
CENTAUR R/B 2.4 02:27:05 10° S 02:32:31 53° ESE 02:37:13 17° NE
Ariane Rocket 3.3 02:33:44 20° SE 02:36:50 44° ENE 02:41:39 10° N
OAO 2 Rocket 4.0 02:35:50 10° W 02:40:56 53° SSW 02:43:33 27° SE
Cosmos 44 3.2 02:36:27 10° SSW 02:41:31 88° WNW 02:44:58 19° NNE
Cosmos 468 Rocket 4.1 02:37:19 10° S 02:42:26 53° ESE 02:45:27 24° NE
CSL-04 Debris 4.4 02:38:40 10° S 02:44:05 71° WSW 02:49:33 10° NNW
OAO 3 Copernicus 4.3 02:40:47 10° W 02:45:52 77° N 02:47:20 46° ENE
Shenzhou-11 Module 4.0 02:46:07 10° NW 02:47:18 19° NNW 02:47:18 19° NNW
SEDSat Delta rocket 4.5 02:46:07 10° SSW 02:50:08 25° SSE 02:50:08 25° SSE
Cosmos 2082 Rocket 2.1 02:46:49 10° NNW 02:52:28 61° ENE 02:54:17 41° SE
OAO 3 Rocket 3.3 02:47:49 10° W 02:52:44 72° SSW 02:53:50 52° SE
Meteosat 1 Rocket2 3.5 02:50:20 10° WSW 02:53:34 36° S 02:53:34 36° S
Cosmos 1570 Rocket 4.4 02:49:03 10° S 02:53:17 43° SE 02:53:17 43° SE
Cosmos 1076 Rocket 3.3 02:51:53 10° N 02:56:15 83° E 02:57:30 46° SSE
Delta 2 Rocket 3.5 02:53:45 10° W 02:56:36 50° NW 02:56:36 50° NW
Meteor 2-1 Rocket 4.0 02:53:30 10° S 02:58:59 85° E 03:04:33 10° N
BREEZE-M DEB (TANK) 4.4 02:54:47 10° SSW 02:59:20 23° SSE 02:59:20 23° SSE
H-2A R/B 4.4 01:20:13 10° SW 03:01:35 74° SSE 03:08:03 37° E
USA 234 4.4 03:06:51 24° SSE 03:06:51 24° SSE 03:10:18 10° S
Cosmos 2061 Rocket 4.4 02:59:31 10° N 03:04:10 41° NE 03:04:10 41° NE
YAOGAN 1 4.3 03:02:49 10° SSW 03:06:42 32° W 03:10:36 10° NNW
Cosmos 1459 Rocket 3.9 03:01:37 10° N 03:07:51 70° E 03:11:23 28° SSE
IUS-18 SRM-1 3.7 03:05:10 10° WSW 03:09:02 28° SSW 03:09:02 28° SSW
In-Cosmos 22 Rocket 4.2 03:11:24 10° N 03:16:01 62° NNE 03:16:01 62° NNE
Cosmos 1763 Rocket 3.5 03:16:14 10° SSW 03:21:17 79° SW 03:21:17 79° SW
Gbstr 26 Del rocket 4.1 03:17:06 10° NW 03:23:44 72° NE 03:24:22 68° ENE
Cosmos 1939 Rocket 4.4 03:26:16 33° WSW 03:26:44 34° W 03:30:26 10° NNW
H-2A R/B 4.4 03:37:16 13° N 03:37:16 13° N 03:37:53 10° N
NOSS 3-3 (A) 4.5 03:27:19 10° NNW 03:35:10 87° ENE 03:36:38 65° SE
NOSS 3-3 (C) 4.5 03:27:24 10° NNW 03:35:16 86° ENE 03:36:41 66° SE
Cosmos 2173 Rocket 4.2 03:29:08 10° NNW 03:35:18 68° W 03:37:56 35° SSW
Lacrosse 5 3.0 03:31:19 10° NW 03:34:25 38° NNW 03:34:25 38° NNW
Cosmos 1802 Rocket 4.1 03:35:40 10° N 03:42:05 75° W 03:42:15 74° WSW
ADEOS Rocket 3.4 03:45:11 10° N 03:52:43 79° WNW 03:59:34 10° SSW
ATLAS 3B R/B 4.1 04:08:47 10° WSW 04:14:41 31° NW 04:16:25 28° NNW
CENTAUR R/B 4.3 04:18:46 10° W 04:23:33 24° NW 04:24:30 24° NNW
ATLAS 2AS CENTAUR R/B 4.2 10:26:25 35° NE 10:26:25 35° NE 10:30:44 10° NE
Cosmos 2278 Rocket 4.5 10:40:12 19° ENE 10:40:12 19° ENE 10:44:04 10° ESE
USA 267 4.4 10:57:07 10° NE 11:00:40 33° NNE 11:00:40 33° NNE
H-2A ROCKET BODY 4.4 11:02:49 42° S 11:06:11 51° SE 11:54:52 10° E
Cosmos 2237 Rocket 3.6 11:16:59 31° NNE 11:16:59 31° NNE 11:19:52 10° NNE
NOSS 3-4 (A) 4.2 11:35:41 39° N 11:35:41 39° N 11:39:47 10° NNE
NOSS 3-4 (C) 4.2 11:35:43 40° N 11:35:43 40° N 11:39:54 10° NNE
Milstar 3 3.8 11:32:38 33° S 11:33:47 35° SSE 11:39:46 10° E
RESURS DK-1 3.9 11:44:30 33° NE 11:44:30 33° NE 11:47:06 10° NNE
BREEZE-M DEB (TANK) 4.3 11:51:21 21° ESE 11:51:21 21° ESE 11:52:11 10° ESE
ATLAS 3B R/B 3.4 11:44:31 13° NNW 11:50:22 50° NE 11:57:03 10° SE
CZ-2C R/B 3.3 11:49:13 10° NNE 11:54:14 50° E 11:59:07 10° S
